Simultaneous Nadir Overpasses (SNOs) Predictions

Prediction of SNOs between GOES-15 and TERRA Satellite Orbit:

Table of predicted SNOs for the next 14.0 days since TLE Epoch: 4/7/2012
Index Date Time (GOES-15) GOES-15 Lat,Lon TERRA Lat,Lon Distance(km) Time Diff (sec)
1 04/08/2012 07:24:17 0.09,-134.41 0.35,-133.35 120.84 80
2 04/08/2012 19:42:53 -0.09,-134.41 0.76,-138.51 465.40 80
3 04/10/2012 07:12:09 0.10,-134.29 0.94,-130.40 442.92 80
4 04/10/2012 19:30:44 -0.10,-134.29 0.17,-135.56 143.47 80
5 04/12/2012 19:21:15 -0.11,-134.17 -0.42,-132.60 177.92 80
6 04/13/2012 07:42:40 0.10,-134.11 -0.69,-137.80 419.84 80
7 04/14/2012 19:09:07 -0.11,-134.05 -1.05,-129.66 499.04 80
8 04/15/2012 07:30:32 0.11,-133.98 -0.06,-134.85 98.73 80
9 04/17/2012 07:15:44
